Location: Paddlesworth
(51.1000°N, 1.1333°E)
Time: 02:42:29
(UTC+00:00)

MetOp-B - Pass Details

Date: 11 May 2021
Orbit: 819 x 821 km, 98.7° (Epoch: 14 June)

Event Time Altitude Azimuth Distance (km) Brightness Sun altitude
Exits shadow 20:15:12 - 151° (SSE) 2,845 6.4 -6.2°
Reaches altitude 10° 20:16:18 10° 150° (SSE) 2,415 6.0 -6.3°
Maximum altitude 20:21:35 64° 70° (ENE) 907 4.3 -6.9°
Drops below altitude 10° 20:26:54 10° 350° (N) 2,430 7.5 -7.6°
Sets 20:29:16 0° 347° (NNW) 3,366 8.3 -7.9°
